Weather Roundup
Issued by NWS

Home | Current Version | Previous Version | Text Only | Print | Product List | Glossary On
Versions: 1 2 3 4 5 6 7 8 9 10 11 12 13 14 15 16 17 18 19 20 21 22 23 24 25 26 27 28 29 30 31 32 33 34 35 36 37 38 39 40 41 42 43 44 45 46 47 48 49 50
000
NZUS93 KARX 260459
HRRWXR

CURRENT HOURLY OBSERVATIONS ACROSS
MUCH OF THE UPPER MISSISSIPPI VALLEY
NATIONAL WEATHER SERVICE LA CROSSE WI
1200 AM CDT THU MAY 26 2016


...SOUTHEAST MINNESOTA...


CITY           SKY/WX    TMP DP  RH WIND       PRES   REMARKS
ROCHESTER      CLEAR     64  63  96 S8        29.86S
ROCHESTER/MAYO FAIR      67  65  94 SE7       29.86S
WINONA         PTCLDY    63  63 100 CALM      29.86S FOG
AUSTIN         PTCLDY    66  63  88 S6        29.86S
ALBERT LEA     PTCLDY    70  63  78 S6        29.84S
DODGE CENTER   PTCLDY    66  63  88 S10       29.86S
PRESTON        PTCLDY    64  60  88 S5        29.88S
OWATONNA       MOCLDY    66  63  88 SE8       29.84S
FARIBAULT      NOT AVBL
$$

...ELSEWHERE IN MINNESOTA...


CITY           SKY/WX    TMP DP  RH WIND       PRES   REMARKS
MINNEAPOLIS    PTCLDY    67  62  84 E10       29.82F
INTNL FALLS    CLOUDY    60  48  64 SE9       29.79F
DULUTH         CLOUDY    47  45  93 E9        29.86S
RED WING       PTCLDY    64  63  94 E3        29.84R
REDWOOD FALLS  LGT RAIN  68  47  46 NW13      29.80F
MANKATO        CLOUDY    66  57  72 SE8       29.81F
WORTHINGTON    CLOUDY    67  61  81 NW22      29.85R THUNDER
FAIRMONT       CLOUDY    64  57  77 SE12      29.83F THUNDER
$$

...SOUTHWEST WISCONSIN...


CITY           SKY/WX    TMP DP  RH WIND       PRES   REMARKS
LA CROSSE      CLEAR     66  64  93 SE5       29.85R
PRAIRIE DU CHI PTCLDY    66  60  79 CALM      29.87R
BOSCOBEL       FOG       63  62  97 CALM      29.88R VSB 1/2
LONE ROCK      NOT AVBL
PLATTEVILLE    CLEAR     70  58  67 SW5       29.88F
FORT MC COY    CLEAR     60  60 100 CALM      29.87S
CAMP DOUGLAS   CLOUDY    63  63 100 S1        29.87S
MAUSTON-NEW LI CLOUDY    64  63  99 CALM      29.86F FOG
VIROQUA        MOCLDY    67  62  82 S6        29.89S
WIS DELLS      PTCLDY    64  62  94 CALM      29.88F FOG
$$

...ELSEWHERE IN WISCONSIN...


CITY           SKY/WX    TMP DP  RH WIND       PRES   REMARKS
MILWAUKEE      MOCLDY    60  58  92 SE5       29.91F
MADISON        PTCLDY    69  63  81 S8        29.88F
GREEN BAY      PTCLDY    60  59  96 CALM      29.87F FOG
EAU CLAIRE     NOT AVBL
BLACK RVR FLS  FOG       60  60 100 CALM      29.86R VSB 1/2
MEDFORD        CLOUDY    62  62 100 SW6       29.87S
WAUSAU         CLOUDY    64  32  30 S9        29.86F HAZE
WIS RAPIDS     CLEAR     62  59  90 S3        29.89R FOG
MARSHFIELD     CLOUDY    64  61  90 S6        29.87S FOG
RICE LAKE      FOG       58  56  94 CALM      29.87S VSB<1/4
$$

...NORTHEAST IOWA...


CITY           SKY/WX    TMP DP  RH WIND       PRES   REMARKS
WATERLOO       CLOUDY    70  59  68 SE5       29.86S
DUBUQUE        PTCLDY    68  58  70 SW5       29.90S
DECORAH        MOCLDY    68  63  83 S5        29.87S
MASON CITY     MOCLDY    65  64  97 S6        29.87R
CHARLES CITY   PTCLDY    68  63  83 S6        29.88R
OELWEIN        MOCLDY    68  61  77 S7        29.89R
$$

...ELSEWHERE IN IOWA...


CITY           SKY/WX    TMP DP  RH WIND       PRES   REMARKS
DES MOINES     CLOUDY    74  65  73 S5        29.86R
IOWA CITY      CLOUDY    71  61  70 CALM      29.89F
FORT DODGE     PTCLDY    70  61  73 S7        29.85F
MARSHALLTOWN   CLOUDY    71  62  73 S3        29.87R
CEDAR RAPIDS   CLOUDY    70  62  76 SE3       29.88S
$$

...NORTHERN ILLINOIS...


CITY           SKY/WX    TMP DP  RH WIND       PRES   REMARKS
CHICAGO-OHARE  CLOUDY    66  65  96 SE14      29.94F
CHICAGO-MIDWAY CLOUDY    66  62  87 E9        29.95S
MOLINE         PTCLDY    73  61  65 S7        29.89S
ROCKFORD       PTCLDY    67  63  87 SE6       29.93F
PEORIA         CLEAR     72  65  78 S8        29.93S
$$

NOTE: "FAIR" INDICATES FEW OR NO CLOUDS BELOW 12,000 FEET WITH NO
SIGNIFICANT WEATHER AND/OR OBSTRUCTIONS TO VISIBILITY. WIND
SPEEDS ARE IN MILES-PER-HOUR.




USA.gov is the U.S. government's official web portal to all federal, state and local government web resources and services.